Simultaneous Nadir Overpasses (SNOs) Predictions

Prediction of SNOs between NOAA-21 and METOP-C Satellite Orbit:

Table of predicted SNOs for the next 14.0 days since TLE Epoch: 10/21/2024
Index Date (NOAA-21) Time (NOAA-21) Lat,Lon (NOAA-21) SZA (NOAA-21 ) Date (METOP-C) Time (METOP-C) Lat,Lon (METOP-C) SZA (METOP-C ) Distance(km) Time Diff (sec)
1 11/04/2024 09:51:14 -73.50,-157.41 90.94 11/04/2024 09:52:20 -73.44,-154.47 91.07 93.06 66
2 11/04/2024 10:41:55 73.26, 10.45 88.82 11/04/2024 10:43:04 73.19, 12.31 88.71 60.33 69
3 11/04/2024 11:32:38 -73.21, 177.88 91.23 11/04/2024 11:33:48 -73.11, 179.47 91.36 52.34 70
4 11/04/2024 12:23:19 72.97, -14.28 88.53 11/04/2024 12:24:31 72.91, -13.62 88.46 22.35 72
5 11/04/2024 13:14:02 -72.91, 153.15 91.52 11/04/2024 13:15:15 -72.84, 153.55 91.60 15.49 73
6 11/04/2024 14:04:45 72.77, -39.24 88.35 11/04/2024 14:05:55 72.79, -39.22 88.36 2.13 70
7 11/04/2024 14:55:28 -72.77, 128.08 91.64 11/04/2024 14:56:37 -72.77, 128.06 91.65 0.58 69
8 11/04/2024 15:46:14 72.78, -64.63 88.38 11/04/2024 15:47:16 72.77, -64.60 88.37 1.31 62
9 11/04/2024 16:36:58 -72.78, 102.69 91.62 11/04/2024 16:37:59 -72.75, 102.68 91.65 3.00 61
10 11/04/2024 17:27:43 72.73, -89.91 88.36 11/04/2024 17:28:38 72.75, -89.99 88.37 3.01 55
11 11/04/2024 18:18:28 -72.78, 77.31 91.59 11/04/2024 18:19:20 -72.78, 77.40 91.60 3.12 52
12 11/04/2024 19:09:13 72.74,-115.30 88.38 11/04/2024 19:10:00 72.73,-115.37 88.37 2.96 47
13 11/04/2024 19:59:57 -72.74, 52.02 91.61 11/04/2024 20:00:42 -72.76, 52.02 91.60 2.20 45
14 11/04/2024 20:50:43 72.75,-140.68 88.41 11/04/2024 20:51:21 72.76,-140.65 88.42 1.46 38



Historial Predications of SNOs between NOAA-21 and METOP-C
